GFSSE_700_rhum_078.txt.gz
RH
20 21 21 27 30 33 33 30 34 32 35 28 34 43 41 40 50 60 57 54 47 60 65 71 74 65 56 53 49 39 28 37 34 29 42 62 68 57 49 58 59 53 48
17 20 29 33 36 36 32 30 32 35 34 27 33 44 45 48 52 56 59 66 56 51 50 62 73 65 54 48 44 36 22 29 30 34 49 64 59 48 55 54 53 48 55
18 20 34 38 36 38 42 45 45 38 28 26 27 45 52 52 52 55 73 74 69 58 50 41 49 66 61 39 28 50 37 32 32 35 61 61 48 52 56 43 45 56 60
19 20 34 37 34 31 25 23 23 26 26 27 30 45 56 58 53 61 71 69 74 48 50 49 46 38 35 26 42 62 31 13 40 48 73 62 50 53 50 44 45 50 51
20 18 22 27 25 23 23 17 18 22 27 26 29 41 60 63 58 62 76 69 53 61 42 50 47 46 20 15 48 74 52 14 51 68 74 64 58 54 48 57 52 43 37
22 22 28 28 24 22 22 17 17 18 26 34 37 49 63 70 69 73 78 54 62 46 47 47 57 53 18 10 47 45 35 18 51 72 66 46 61 46 57 50 43 15 22
25 24 23 25 28 27 24 18 20 22 25 35 48 62 73 73 68 68 52 47 62 51 41 48 54 58 14 10 45 26 14 17 50 46 54 42 38 38 23 23 18 13 13
26 23 26 28 29 27 26 18 27 34 33 35 54 71 82 81 74 61 72 76 75 57 59 53 51 47 16 13 17 15 14 17 35 51 26 22 30 30 18 16 13 13 14
25 23 24 26 26 27 26 16 31 46 46 57 70 76 97 98 97 99 87 95 81 72 64 42 39 38 22 16 19 15 15 18 20 20 25 18 18 17 15 15 16 15 13
25 25 24 25 28 29 25 13 32 45 56 58 71 86 93 96 86 100 98 94 89 81 73 64 34 29 30 22 18 16 18 18 21 24 26 14 15 15 18 17 14 10 8
26 27 28 27 31 30 21 12 30 40 63 62 64 76 95 97 93 95 94 96 93 96 85 69 38 34 29 26 19 21 19 19 19 18 16 16 18 19 18 11 8 8 8
28 29 30 31 30 29 24 12 19 34 54 68 67 63 78 98 100 98 97 98 96 99 97 81 72 59 26 41 23 22 20 18 20 19 18 20 21 17 10 8 8 8 8
30 34 32 36 32 30 27 17 12 18 29 49 73 70 63 82 99 96 99 96 91 96 97 95 94 61 53 54 25 20 19 24 25 24 22 23 19 11 9 8 8 8 8
32 33 32 37 34 31 28 26 12 12 15 30 45 68 63 70 97 99 98 95 79 99 99 98 86 55 62 44 26 25 25 26 27 26 23 21 12 9 9 9 9 9 9
33 37 33 38 34 31 28 30 21 10 12 17 31 45 40 51 96 85 100 95 98 99 99 100 78 64 72 36 28 31 30 30 29 25 20 12 9 11 10 10 10 11 11
35 34 35 38 32 39 38 33 26 12 12 15 20 38 54 44 58 94 100 98 99 99 99 96 72 69 52 29 32 32 33 33 26 20 12 10 12 11 11 12 13 13 12
29 30 39 37 44 49 47 33 19 12 12 16 22 34 77 84 74 99 95 98 99 100 100 98 63 49 41 33 48 37 37 34 25 14 11 12 12 13 14 15 14 13 15
26 32 38 43 50 55 48 31 15 12 13 18 34 55 71 92 79 84 95 90 99 100 99 99 44 51 46 48 36 35 39 35 22 15 15 15 14 16 15 16 16 18 21
25 28 33 42 52 59 46 34 15 12 15 27 60 66 78 77 82 84 99 100 100 100 100 98 42 37 51 38 38 43 42 37 23 20 16 17 17 17 17 17 18 22 26
24 29 30 38 47 62 54 36 13 11 16 42 62 68 74 82 95 97 100 88 98 100 100 90 40 50 45 34 40 44 43 37 25 19 18 20 19 19 19 18 20 24 28
23 26 27 31 45 62 62 34 11 13 19 51 56 74 79 95 100 98 99 87 100 99 100 99 92 71 52 44 45 54 42 38 28 23 27 23 23 22 22 21 22 25 31
24 26 26 29 44 57 63 36 10 14 29 56 74 79 84 89 97 100 97 100 100 98 100 100 73 50 48 51 48 43 40 48 34 28 52 55 32 26 29 33 30 28 34
24 24 25 29 43 54 64 41 11 17 37 59 73 79 84 93 98 99 100 100 100 100 100 95 45 43 42 49 46 41 42 42 42 46 39 30 26 27 29 30 34 36 43
24 24 26 36 43 50 65 41 13 19 46 66 75 84 88 94 99 100 98 100 100 100 99 96 45 46 47 49 48 48 79 85 53 33 26 28 42 66 71 37 32 35 36
23 24 26 39 46 52 55 37 14 22 53 63 76 84 94 92 100 99 99 99 99 100 100 94 52 43 53 57 54 56 52 61 45 67 37 37 38 40 44 48 74 73 49
23 24 28 40 48 58 57 36 14 22 53 63 76 83 85 90 100 98 100 99 99 99 100 62 44 46 63 62 67 90 88 84 73 60 57 43 36 46 47 56 76 75 66

GFSSE_700_rhum_084.txt.gz
RH
24 17 17 17 17 20 23 24 27 30 30 32 35 23 25 38 42 44 57 53 49 42 52 64 57 59 64 63 57 56 52 53 49 42 42 37 56 75 64 57 64 55 53
27 18 17 18 17 19 24 28 32 32 32 32 36 25 26 37 42 47 59 60 56 46 56 62 59 66 64 59 54 54 48 46 49 42 41 49 73 67 55 64 59 53 52
31 19 18 18 18 17 19 28 33 33 33 33 35 28 26 37 42 47 61 72 69 58 49 51 61 70 66 57 54 49 41 31 34 41 51 74 74 55 62 66 53 54 60
19 19 19 18 19 19 18 20 26 30 32 31 34 30 28 32 46 48 60 69 83 68 60 50 48 62 64 56 47 29 42 36 46 45 64 76 64 56 61 56 49 59 63
20 20 19 20 20 19 18 20 19 18 17 19 26 28 30 33 44 51 60 87 90 81 70 60 54 49 53 58 52 41 48 42 42 50 58 69 56 62 54 45 51 57 55
22 21 20 21 20 18 15 18 20 19 16 13 19 27 30 33 38 48 64 85 90 92 78 70 71 59 57 41 24 64 35 20 46 56 76 71 60 59 51 48 53 53 54
23 22 22 21 19 17 15 15 17 19 17 16 16 21 34 37 39 45 63 82 96 93 88 70 74 66 63 39 19 69 59 30 53 67 78 69 52 57 51 53 61 45 22
25 24 23 21 21 20 18 18 18 18 16 16 20 21 28 40 49 57 61 87 98 96 92 85 78 63 68 37 19 47 74 51 43 65 86 70 56 61 51 59 59 33 18
27 27 24 22 22 22 21 19 21 19 14 16 30 28 32 57 66 72 71 74 100 99 94 92 84 63 64 45 20 40 55 25 35 67 74 76 63 68 55 31 17 16 14
27 28 27 24 23 24 22 24 21 15 11 18 36 42 44 52 72 83 85 84 81 100 98 97 91 77 60 50 28 48 52 27 42 85 87 69 68 54 39 25 15 13 14
28 28 27 25 25 25 24 24 21 14 10 16 34 47 51 53 67 66 84 96 94 91 99 87 92 86 73 56 50 48 35 25 33 77 65 36 40 24 26 21 14 14 16
15 28 27 26 27 26 26 24 22 22 12 11 18 41 58 58 63 69 78 99 98 83 97 98 95 91 78 72 53 51 35 47 34 70 46 21 22 19 17 15 16 16 11
31 24 27 28 28 28 29 25 23 21 22 12 12 36 50 61 67 71 83 93 91 87 80 96 96 95 85 78 75 78 48 52 33 82 27 30 20 16 15 18 17 11 7
90 41 27 29 29 30 31 28 28 23 21 21 11 26 35 50 62 73 81 92 93 83 74 75 92 94 94 83 65 78 49 75 87 63 28 26 17 18 20 19 12 7 7
93 92 53 28 29 31 33 30 28 28 26 23 24 24 22 35 49 58 73 76 74 92 87 86 92 93 100 91 81 68 51 98 84 70 24 24 20 21 20 15 8 7 7
56 94 88 37 29 31 33 31 32 41 36 24 17 28 24 25 41 52 65 63 80 80 86 94 90 98 98 97 95 75 60 88 35 38 28 25 23 22 19 10 7 8 8
41 75 98 55 30 31 32 31 39 46 37 28 16 14 20 26 26 40 47 66 61 88 85 85 98 98 99 99 98 87 65 37 31 21 26 26 24 20 14 8 8 9 8
37 43 92 48 29 32 31 30 40 50 40 31 17 13 21 27 32 51 51 64 73 99 83 95 96 98 100 99 99 85 81 26 34 24 24 26 21 16 10 8 8 8 9
35 41 60 38 28 34 31 27 42 54 46 33 14 12 15 33 33 57 60 76 74 79 91 94 98 99 100 100 99 98 57 29 31 32 28 24 16 10 9 10 10 11 11
32 43 53 45 29 31 28 29 38 54 55 37 13 10 13 46 49 65 64 80 86 100 99 98 99 100 100 100 99 82 45 29 32 35 30 25 14 12 12 12 13 13 12
32 46 58 46 32 28 24 31 38 50 60 42 20 10 14 28 70 83 82 81 98 82 94 99 100 98 100 100 100 80 45 34 35 36 32 26 22 31 17 15 14 14 13
38 52 62 36 25 25 27 33 38 45 58 48 25 11 25 40 62 80 87 88 89 100 99 98 100 97 100 99 93 62 53 67 36 39 35 28 30 21 14 15 15 15 16
42 59 57 30 21 25 31 30 33 44 58 55 21 16 38 52 67 78 79 86 90 96 100 99 99 100 100 99 89 62 53 54 38 38 37 30 21 16 18 18 35 25 19
37 43 60 29 22 25 26 27 31 46 56 53 15 25 40 57 87 93 80 86 86 100 100 99 100 100 99 100 98 65 66 56 56 51 38 34 26 23 32 48 56 25 20
34 34 33 25 24 24 24 26 32 48 49 43 13 28 48 62 76 86 88 92 100 100 98 99 100 100 100 100 100 97 51 67 71 55 58 47 40 40 44 46 29 23 31
33 31 30 23 26 24 25 26 39 49 41 27 14 31 54 70 76 80 91 94 97 100 99 98 100 100 100 100 99 99 96 71 93 96 80 93 88 67 44 32 31 34 49

GFSSE_700_rhum_087.txt.gz
RH
35 26 16 16 16 16 16 17 22 26 28 28 30 32 27 30 42 41 51 54 49 45 42 54 65 56 61 65 72 63 62 62 61 62 60 50 44 64 75 66 59 57 52
34 29 24 18 17 17 16 15 21 28 31 31 31 33 28 28 41 41 43 54 52 50 46 60 64 58 66 65 64 56 54 56 54 51 47 41 57 77 63 62 63 56 51
31 26 23 18 18 18 17 15 16 29 32 32 30 34 33 26 36 40 47 56 59 55 49 53 59 65 70 64 57 55 48 43 48 45 41 55 80 64 60 70 54 55 56
23 20 20 19 19 18 18 16 15 18 26 31 30 31 34 28 34 42 46 57 65 62 55 46 52 67 70 60 55 52 41 36 31 38 53 78 75 56 60 62 51 54 61
21 20 20 20 19 19 19 18 16 17 18 18 20 24 32 30 34 45 48 59 63 62 60 57 47 51 66 61 53 43 33 45 41 50 71 80 65 61 57 52 49 59 58
25 21 21 20 20 20 19 18 17 12 18 18 15 18 25 29 32 37 52 58 73 74 70 68 60 58 59 62 54 45 53 44 42 54 66 72 62 69 56 49 58 56 52
36 34 23 20 21 21 20 19 18 13 14 18 16 15 19 29 32 32 44 63 78 88 83 80 71 66 62 60 34 31 47 23 29 55 76 75 66 69 56 50 54 53 48
34 27 23 22 22 22 21 20 17 13 13 14 16 17 18 25 30 36 41 54 84 97 94 97 83 78 70 61 35 38 50 46 27 59 74 72 57 65 56 55 61 51 29
36 26 24 23 22 22 21 20 18 14 13 14 14 18 24 24 26 40 46 49 64 86 100 98 94 83 77 71 30 43 74 69 43 38 71 77 65 68 67 55 57 46 19
34 30 27 25 24 23 22 22 20 17 14 12 11 18 33 34 32 51 56 67 69 80 89 100 99 95 84 72 30 33 53 48 41 58 79 84 70 74 72 59 31 17 15
31 34 29 28 26 24 24 24 22 19 17 13 10 16 30 42 46 49 65 82 86 88 81 78 100 99 90 78 74 40 59 63 66 50 88 88 75 69 58 41 25 16 13
31 23 30 30 28 26 25 25 23 21 18 18 12 11 17 42 53 53 65 74 88 86 94 86 100 99 92 77 67 64 56 50 37 60 99 83 54 45 38 18 17 14 15
35 27 16 30 32 27 27 26 25 23 21 20 20 12 11 29 51 60 66 72 79 87 95 82 100 98 95 79 68 57 60 61 22 41 64 54 24 19 17 15 14 15 16
23 29 21 22 34 30 28 28 27 24 24 23 21 20 13 22 49 60 68 73 82 88 91 81 98 99 95 92 78 62 65 60 63 45 23 19 26 18 16 14 16 17 12
25 26 15 17 38 33 29 29 28 25 25 27 28 21 22 18 26 43 54 71 83 81 82 84 82 89 91 93 93 83 76 73 40 29 23 20 22 16 15 18 19 16 8
24 66 79 39 41 41 31 30 30 27 30 34 34 27 18 18 18 32 45 49 78 72 89 85 90 87 93 97 97 86 76 71 54 23 22 28 23 19 20 20 18 11 7
25 34 58 96 71 55 35 33 31 29 33 37 40 33 24 14 16 24 28 42 62 69 88 90 91 88 90 96 99 97 86 65 58 26 22 27 24 22 22 21 16 8 7
27 32 40 56 81 65 43 35 32 30 36 44 46 36 24 14 12 23 28 39 49 72 75 100 94 84 91 98 100 100 99 85 56 27 26 25 26 25 22 19 10 8 8
29 33 35 40 45 44 55 35 33 30 37 48 51 41 21 10 12 18 33 58 57 74 80 100 89 94 90 100 100 100 100 81 62 28 25 29 27 24 19 12 9 9 8
32 28 31 38 40 52 57 36 36 30 35 50 55 49 29 9 13 20 51 59 70 81 81 78 79 97 94 99 100 100 99 99 51 30 29 30 26 20 14 10 10 10 10
32 27 28 40 42 45 46 38 38 30 34 45 56 55 39 12 13 24 68 69 74 89 88 85 98 99 99 99 100 100 100 100 86 28 30 30 26 17 11 11 11 12 13
25 25 28 34 40 46 47 35 37 32 35 41 49 57 44 14 24 44 82 81 81 81 82 83 98 100 100 99 98 100 99 95 56 34 29 30 27 17 18 24 15 14 14
23 23 24 37 45 40 46 39 34 31 30 34 46 54 37 15 36 43 73 83 83 89 88 87 89 99 100 99 100 98 98 80 43 38 34 33 31 29 32 24 14 15 16
27 24 37 45 49 36 43 33 31 29 31 37 47 48 22 18 40 45 62 80 89 95 87 94 99 98 100 98 100 100 100 87 53 43 37 38 34 30 22 15 17 21 26
33 41 39 41 39 34 36 30 28 29 32 37 48 43 14 26 44 52 77 85 85 93 92 93 100 100 99 100 99 99 100 99 89 71 63 47 38 33 25 22 32 53 39
35 33 39 37 34 34 36 32 26 30 33 41 48 40 15 38 54 71 83 87 99 99 98 99 100 100 100 100 100 100 99 99 94 62 58 59 57 48 41 43 44 42 31

GFSSE_700_rhum_093.txt.gz
RH
21 24 13 12 13 16 17 17 15 13 15 20 24 28 28 28 28 27 37 43 44 47 49 43 42 50 62 58 63 76 80 69 68 67 84 77 44 44 70 64 61 52 50
33 31 14 12 16 17 18 17 16 14 14 14 22 29 29 29 27 24 31 40 43 50 50 44 43 48 63 59 72 82 79 67 59 74 76 66 42 60 73 62 59 55 51
32 32 22 16 21 20 18 18 16 16 14 15 18 26 30 28 30 26 28 41 50 57 52 46 44 55 65 61 72 99 77 65 64 58 53 47 49 73 70 62 61 58 55
39 35 26 26 25 20 19 18 18 17 16 14 15 19 28 26 26 30 28 38 46 58 55 51 49 60 64 66 74 72 63 59 57 49 45 39 48 72 62 64 62 58 63
25 42 30 26 25 21 19 19 18 18 18 15 14 14 16 19 19 24 28 33 49 60 58 56 53 64 66 70 73 66 58 54 46 40 37 31 52 67 60 72 60 56 63
20 36 29 20 20 20 20 20 19 19 19 15 13 13 15 16 18 19 28 31 46 59 63 66 65 63 70 76 76 65 56 52 41 34 32 37 67 66 63 68 59 59 66
29 30 22 21 21 21 21 20 20 20 20 19 16 15 14 16 16 19 22 30 44 54 62 66 74 75 69 64 70 70 61 52 42 42 36 57 68 70 69 61 57 62 60
32 33 33 37 38 33 26 22 21 20 20 18 16 16 14 13 16 16 19 25 36 46 57 67 72 84 80 70 65 70 71 54 51 49 54 63 72 71 70 54 54 58 57
28 29 26 27 36 32 23 22 22 20 20 18 18 16 14 11 12 15 17 19 30 39 51 67 92 96 95 83 87 74 66 39 47 51 57 71 70 74 68 51 50 51 50
21 20 19 20 20 28 24 23 22 21 20 19 18 17 14 11 10 13 18 21 26 40 50 68 97 99 95 94 97 87 79 46 35 44 59 72 72 70 63 54 51 53 51
30 31 24 22 26 25 28 26 23 23 22 20 20 18 16 14 10 14 23 28 29 39 56 66 74 77 90 89 98 96 86 51 43 55 74 80 70 62 65 60 53 48 32
37 32 33 31 33 31 27 27 24 24 23 22 21 20 18 17 15 12 18 30 37 44 62 68 80 83 88 86 96 97 94 67 64 69 63 70 73 68 66 62 58 52 23
47 50 43 40 37 34 31 31 29 26 25 24 23 22 20 19 18 14 12 22 44 53 57 72 84 94 90 88 94 92 95 82 66 75 64 66 74 70 67 67 59 47 19
56 43 32 30 38 39 37 33 34 28 27 26 25 23 22 21 20 20 16 19 42 57 63 73 83 85 91 99 94 98 98 81 59 68 49 42 76 82 76 63 52 31 18
62 82 42 30 29 27 29 28 35 37 29 28 27 25 26 28 27 23 21 20 32 59 66 73 89 96 97 92 100 100 99 82 76 77 69 56 86 86 62 63 57 18 16
61 56 47 28 26 24 22 22 25 32 36 30 29 28 28 34 33 32 26 17 21 51 68 74 92 93 87 95 98 100 99 92 69 67 67 40 70 78 78 46 59 17 15
27 33 42 34 31 28 27 37 52 50 48 32 30 31 32 39 38 39 29 18 16 34 54 75 83 88 92 94 98 100 100 97 71 81 81 74 45 45 29 30 31 16 18
25 24 28 32 34 32 30 30 50 98 56 35 32 33 34 43 39 43 35 12 13 21 39 58 71 85 94 98 99 98 100 97 81 87 87 83 67 32 35 23 18 19 20
26 24 20 30 35 31 31 29 44 90 81 39 35 35 35 43 40 46 43 15 10 14 28 36 70 71 94 96 100 99 98 99 98 95 98 89 72 35 32 27 21 22 21
31 28 26 22 29 34 34 40 29 68 90 78 41 40 36 40 40 47 49 26 10 12 20 32 61 71 91 94 96 94 94 100 98 99 99 87 66 43 28 28 24 24 21
32 32 32 26 25 31 33 34 33 29 63 82 61 46 40 38 39 46 50 39 15 13 21 42 61 73 82 93 100 94 97 100 99 100 99 92 84 59 26 25 25 22 15
30 34 34 31 28 27 28 29 29 32 56 77 83 54 43 41 38 44 49 42 18 18 23 49 62 72 81 93 99 94 93 99 97 100 98 98 99 52 26 26 24 19 11
24 31 33 34 30 30 29 31 31 36 61 92 76 51 48 42 40 42 45 33 17 32 50 56 73 82 84 94 91 96 94 97 100 100 99 100 98 40 28 27 21 15 10
28 25 30 37 34 32 32 32 32 31 50 54 50 51 51 44 41 44 38 23 18 56 60 72 76 85 91 88 91 92 100 99 98 98 100 99 94 32 31 29 18 12 12
30 28 30 36 36 36 33 34 32 30 50 70 73 60 47 46 39 42 36 16 26 67 68 81 84 88 92 94 93 91 99 98 100 100 99 100 95 31 34 28 17 14 18
31 30 32 34 37 35 34 32 30 29 50 64 66 51 50 46 40 39 31 17 31 46 64 82 84 88 88 87 99 98 99 98 99 99 100 100 93 51 38 32 27 27 23

GFSSE_700_rhum_096.txt.gz
RH
16 18 19 17 17 16 19 18 17 14 13 12 12 16 24 27 28 23 24 24 36 44 50 49 44 44 53 64 62 64 74 81 72 69 80 82 62 37 64 63 58 53 55
24 23 23 17 13 17 20 21 17 16 15 13 12 13 18 26 29 23 21 20 32 42 50 50 45 45 53 62 60 69 80 78 69 66 83 76 59 45 70 63 57 54 56
21 30 28 13 13 18 25 23 18 17 16 15 13 13 14 15 21 23 21 19 23 36 49 51 46 45 52 63 62 74 80 79 66 63 79 60 51 49 70 58 57 59 56
32 28 22 13 16 20 24 23 18 18 18 17 14 13 12 14 15 16 17 19 20 31 47 54 50 48 57 62 63 75 89 81 64 64 52 46 47 61 69 61 62 58 59
27 31 21 19 20 23 25 20 19 18 18 18 14 13 14 14 14 16 17 20 22 28 41 54 54 52 56 61 64 73 74 66 59 55 46 43 40 62 64 62 63 61 67
26 25 32 31 22 22 21 20 19 19 19 19 16 14 14 15 15 16 17 21 26 28 40 51 62 59 58 60 65 74 69 64 56 48 41 34 45 68 62 72 63 61 64
22 26 26 29 21 20 20 20 20 20 20 20 18 15 14 15 15 16 17 20 26 31 34 43 57 67 65 60 61 69 72 65 55 44 35 34 53 70 63 73 60 58 62
24 26 28 25 21 22 22 23 22 22 21 20 19 16 16 15 13 13 16 21 22 28 33 48 61 70 77 73 64 68 62 70 61 45 44 40 63 74 68 68 58 57 63
29 32 26 30 36 38 33 31 28 22 21 20 19 17 18 15 13 13 14 19 20 31 37 41 56 71 84 87 81 89 71 71 67 53 52 52 76 76 74 64 56 58 57
39 36 38 30 27 27 26 25 24 23 23 22 20 19 19 16 12 11 13 16 21 29 38 41 46 59 78 94 83 95 93 84 60 67 63 66 81 77 75 62 54 52 53
43 40 40 28 25 27 29 27 26 24 24 23 22 20 20 17 14 12 14 20 25 31 37 40 47 53 58 90 88 94 98 97 80 74 67 72 76 74 74 64 55 53 52
51 52 38 34 31 32 30 29 27 25 25 24 24 22 22 19 18 16 14 17 24 36 36 38 49 53 63 74 84 86 91 100 95 70 58 69 75 77 69 66 56 56 51
59 58 57 53 43 34 29 31 30 27 25 25 26 24 23 21 20 18 16 14 17 36 42 42 51 58 72 85 96 98 95 92 92 72 71 80 84 76 67 66 62 56 60
84 75 68 58 57 50 40 30 30 31 30 28 27 26 25 23 21 21 20 19 18 36 49 53 58 67 78 96 99 91 99 91 94 89 77 74 76 77 74 66 66 65 66
58 90 88 75 57 50 46 45 38 38 37 34 28 28 26 24 25 26 25 22 20 37 53 59 62 68 79 99 98 94 100 100 99 94 86 82 75 90 81 77 72 63 73
28 36 63 88 81 65 48 42 30 30 29 38 36 30 28 26 28 31 30 29 24 22 42 60 68 68 85 92 82 78 98 100 100 90 82 81 69 92 95 82 67 65 59
22 26 28 38 72 84 51 30 28 29 34 35 38 36 30 29 30 36 37 36 24 18 25 46 58 56 71 80 80 91 100 99 100 96 91 79 75 85 89 84 75 58 69
23 19 21 26 29 43 64 38 39 43 47 54 58 44 34 32 32 38 42 40 28 12 17 27 48 56 64 83 87 99 98 99 100 100 97 74 66 56 55 61 28 34 45
29 31 29 25 23 27 38 43 40 49 48 51 76 54 39 36 36 37 47 45 40 14 12 19 32 53 65 91 94 99 98 98 100 99 97 94 93 82 73 32 31 29 19
29 32 31 29 29 23 25 38 41 42 41 52 71 53 43 42 39 40 49 50 48 29 11 13 23 43 59 97 100 100 100 96 98 100 98 98 97 93 80 49 38 30 21
27 28 28 30 29 30 23 36 35 34 35 35 53 71 50 47 46 42 48 53 50 41 19 13 21 32 98 90 100 100 100 100 100 99 98 98 99 99 82 60 34 31 24
24 26 23 26 28 32 31 26 38 39 36 36 37 52 84 64 52 44 48 52 52 43 30 16 17 33 65 92 96 92 97 100 99 89 99 98 100 99 84 74 36 28 26
21 22 24 25 28 32 34 31 27 38 37 41 45 45 89 86 57 48 48 49 51 44 28 19 23 46 62 78 88 91 92 98 98 90 99 100 100 98 91 86 30 26 26
20 19 23 24 25 31 35 32 28 28 35 36 35 48 98 95 59 53 51 47 48 41 20 22 54 58 66 76 88 93 93 93 98 93 99 98 100 98 100 71 28 28 23
32 24 20 26 24 30 33 34 31 30 30 32 34 64 77 76 74 60 55 44 45 32 17 32 68 64 73 90 90 90 95 89 92 96 99 100 100 99 100 60 31 29 18
46 29 33 31 28 26 30 37 34 32 32 32 36 58 87 68 82 62 48 48 45 30 18 38 74 72 79 84 88 93 92 93 90 88 96 99 99 99 99 59 32 30 17

GFSSE_700_rhum_102.txt.gz
RH
14 12 17 22 15 17 19 23 21 15 14 15 17 18 20 21 22 19 17 14 16 19 31 44 44 42 38 39 48 56 60 62 70 77 68 74 90 59 55 58 58 60 54
15 17 19 22 15 17 18 22 21 16 16 16 16 19 22 25 23 21 17 15 16 19 29 43 48 46 40 39 45 55 58 60 73 77 69 80 78 47 54 60 57 55 55
18 20 25 24 16 14 16 23 23 17 17 16 17 17 20 25 26 25 22 18 17 19 26 34 44 48 44 41 42 48 56 63 76 73 71 78 74 51 61 62 55 54 58
25 22 24 26 19 14 13 20 24 19 18 17 17 15 15 20 24 26 23 21 19 20 24 32 43 45 47 44 47 53 59 73 78 72 69 79 70 54 63 66 56 56 59
26 25 27 29 19 16 13 18 24 21 18 19 18 15 14 15 19 24 23 23 24 23 25 33 41 48 50 49 53 58 62 74 77 78 72 67 58 49 63 68 59 58 56
28 25 24 29 20 15 13 18 23 20 19 19 21 18 16 16 17 20 24 26 26 25 30 32 41 51 53 54 57 59 63 73 85 70 64 61 50 49 58 70 62 59 60
26 26 21 21 17 15 16 19 20 20 20 20 21 20 18 16 16 17 19 22 26 28 32 35 44 51 58 59 58 62 63 71 73 65 58 52 57 41 59 72 65 61 65
27 26 22 21 20 18 19 20 20 20 25 22 21 20 19 16 16 16 15 18 22 28 29 35 44 49 64 66 66 67 66 68 74 66 59 50 49 43 58 74 68 65 65
30 28 28 28 25 20 22 20 20 21 25 25 23 20 20 17 16 17 16 15 19 25 31 29 41 48 68 71 72 77 76 72 74 71 58 58 63 42 57 74 74 66 64
28 26 35 36 32 26 22 21 22 25 27 26 23 21 20 19 17 18 16 14 14 17 24 28 34 50 58 66 75 82 88 85 78 69 73 81 75 63 58 78 76 66 66
21 24 38 44 43 37 26 21 31 30 29 26 22 22 21 20 19 19 18 16 14 14 22 30 30 35 47 57 66 84 93 93 86 89 86 87 89 78 77 88 79 68 65
20 29 47 56 56 58 27 27 33 30 28 25 24 24 22 21 21 21 20 19 18 15 14 20 30 32 48 57 48 67 79 75 81 84 87 92 86 82 93 95 85 72 67
31 52 65 77 74 52 28 30 33 31 29 25 24 24 23 22 24 24 23 22 20 18 16 18 25 33 42 53 60 64 81 85 86 85 90 85 86 86 98 95 90 79 72
61 67 68 80 83 44 37 37 37 31 28 24 24 26 25 24 25 26 25 24 22 20 18 17 19 25 40 54 64 72 78 86 92 95 92 84 91 90 99 100 93 78 73
47 78 70 73 68 45 42 40 40 36 30 26 25 25 25 25 26 27 27 27 24 24 22 20 20 25 37 53 65 70 82 90 89 91 90 82 85 92 99 99 97 86 76
30 55 70 68 64 46 41 48 47 38 35 30 28 28 28 29 28 28 29 29 27 28 27 24 21 22 34 47 60 70 80 86 76 84 94 89 71 88 96 100 99 89 79
29 29 37 64 72 73 72 62 55 48 42 42 36 33 35 36 37 34 30 31 29 31 32 31 26 22 31 39 54 68 78 86 77 74 87 88 75 73 96 100 99 92 85
20 23 28 28 37 59 74 75 78 68 71 76 60 50 41 46 42 40 41 36 33 33 35 35 31 19 21 32 50 61 76 83 76 75 78 89 89 78 97 100 99 93 87
21 22 20 20 22 27 28 37 47 60 75 65 64 73 64 49 38 29 37 49 38 36 37 38 37 25 14 26 44 67 71 73 79 80 77 80 84 88 100 100 97 96 98
14 15 15 18 22 21 20 22 23 27 63 76 72 58 41 44 33 34 40 49 46 40 41 40 41 34 12 13 34 50 92 76 84 84 83 99 96 98 99 100 100 92 96
12 12 15 16 16 21 27 25 20 19 22 36 62 67 37 33 36 39 60 80 57 41 45 46 48 43 20 11 22 26 98 64 87 81 91 94 100 100 100 100 90 80 75
29 19 14 17 24 27 22 29 30 29 25 22 25 41 59 43 41 42 54 87 67 44 46 50 52 50 37 16 16 52 98 59 90 89 85 88 99 100 100 97 95 88 77
26 30 26 28 25 26 29 25 29 29 29 29 25 24 42 48 44 38 50 87 71 51 47 51 52 56 49 33 18 26 94 57 91 95 96 97 94 98 98 99 95 95 85
25 29 41 37 33 35 36 27 25 27 28 30 30 29 25 48 44 42 55 61 86 58 53 52 52 57 58 42 25 23 58 54 96 89 98 100 100 96 99 98 100 98 99
38 40 44 50 47 40 38 25 24 25 26 25 27 31 29 32 43 39 44 58 99 84 64 54 59 58 63 56 30 26 54 58 99 96 95 98 100 97 99 99 98 99 100
62 61 53 60 58 61 43 25 24 22 23 25 27 33 31 25 36 44 58 54 60 48 53 69 62 67 69 64 29 32 80 69 90 87 99 94 99 98 99 100 98 100 99

GFSSE_700_rhum_105.txt.gz
RH
17 11 15 20 16 14 19 24 24 16 16 15 14 16 18 19 22 21 16 12 16 20 29 38 42 42 37 38 44 54 60 58 62 71 75 68 73 75 55 57 58 60 55
13 13 17 20 19 15 16 22 24 19 17 17 16 16 15 18 19 21 19 14 14 17 25 36 45 47 42 38 43 52 58 59 64 78 74 72 81 64 46 56 63 60 56
14 14 19 22 22 15 15 19 21 19 18 17 17 18 15 16 16 18 19 18 15 17 22 31 41 48 47 42 43 47 55 58 69 77 73 72 78 65 48 61 62 58 58
18 19 21 25 26 16 14 16 21 20 18 17 17 17 17 22 24 25 23 21 20 19 23 30 39 47 48 46 44 47 54 61 75 78 71 76 80 61 56 66 64 60 61
17 20 21 27 28 18 15 15 19 20 18 18 18 17 15 17 19 22 25 26 28 24 24 27 36 46 50 48 47 50 54 61 77 77 73 97 89 53 63 66 65 63 64
17 23 17 27 30 20 16 15 18 20 19 19 19 19 18 17 18 20 23 26 27 27 25 30 30 45 48 50 52 54 57 61 72 84 79 90 74 56 61 74 67 64 63
20 24 20 26 29 22 16 16 18 20 19 19 20 21 21 19 18 18 19 19 23 33 32 33 30 40 45 51 56 58 60 61 69 84 86 100 61 65 57 66 72 65 69
25 27 20 22 25 22 16 17 20 20 20 21 21 21 21 20 20 18 18 18 21 28 33 30 30 39 42 51 62 64 65 64 68 81 100 95 54 70 54 71 74 69 70
21 24 23 20 20 19 16 18 21 22 20 23 25 22 22 20 19 17 17 17 18 23 29 35 32 30 39 50 62 67 73 72 70 82 100 100 55 58 70 59 80 75 73
18 29 27 23 22 22 21 20 21 21 21 22 25 26 22 20 19 17 17 18 16 20 24 25 30 28 36 50 56 67 75 76 76 85 96 73 65 74 85 61 82 80 72
18 19 28 28 26 30 24 22 22 21 21 24 27 26 23 22 21 19 18 19 16 22 21 26 36 33 29 35 43 51 66 67 79 72 78 73 83 83 88 71 81 82 74
34 18 31 26 31 35 27 25 25 22 23 28 28 26 23 22 22 20 20 22 21 19 18 18 23 27 31 32 39 40 53 71 66 66 83 88 93 90 97 89 86 83 79
35 38 20 44 33 50 35 33 31 26 26 30 29 26 23 23 23 21 22 23 24 22 20 19 18 19 25 31 43 48 60 66 58 73 86 83 87 88 92 88 99 90 83
38 56 51 41 44 56 61 52 49 39 28 30 30 28 24 24 24 23 24 26 25 25 22 20 19 17 25 29 37 42 56 66 72 74 80 78 91 89 91 87 100 99 90
32 34 59 72 73 71 81 77 63 45 36 31 31 29 25 23 25 24 26 27 26 27 26 24 23 22 23 30 42 45 57 64 71 71 77 80 95 89 97 92 99 98 97
26 29 30 67 78 84 85 87 69 46 45 37 36 31 27 25 25 26 26 27 30 29 28 27 28 30 23 29 39 46 48 61 66 72 82 76 90 91 97 94 98 98 97
23 29 30 33 56 73 78 74 60 46 43 41 40 34 30 28 27 27 28 29 31 34 31 29 30 30 32 35 38 44 50 52 60 68 74 77 79 96 92 98 96 88 97
21 23 26 30 29 38 55 72 74 59 48 47 45 36 34 30 31 32 33 35 37 41 35 32 33 33 32 27 30 36 45 49 51 65 65 70 82 83 93 92 95 99 99
21 21 20 22 27 28 29 38 59 72 78 73 64 47 42 37 35 35 38 40 41 44 43 37 36 36 35 33 19 23 38 45 45 55 58 71 79 78 86 90 84 98 100
13 13 14 16 17 20 24 26 27 32 49 60 70 77 68 58 62 51 41 44 34 40 49 47 38 39 38 38 27 14 26 38 38 39 50 71 82 84 87 95 82 90 100
12 10 8 8 8 9 10 14 19 22 23 28 34 46 59 71 67 75 58 48 30 34 42 61 41 41 43 41 36 19 11 17 35 39 49 66 78 86 99 99 91 95 100
19 15 13 10 8 9 6 6 8 9 14 21 28 23 24 42 60 75 64 52 35 36 50 85 46 42 44 47 45 34 17 19 16 47 45 64 85 92 100 98 100 100 100
17 14 12 13 17 21 22 15 12 18 21 27 30 24 21 24 28 68 62 66 34 40 48 90 58 43 46 49 52 46 30 19 18 31 41 66 82 91 92 100 100 100 99
19 16 19 22 27 33 37 29 28 31 29 27 28 81 24 26 38 24 56 77 39 40 48 81 74 46 48 50 53 54 44 33 19 24 48 84 92 92 93 100 99 100 99
29 31 34 35 35 39 42 43 44 41 34 33 31 62 39 28 29 29 25 45 72 45 48 71 90 56 48 51 55 58 57 49 29 34 47 82 91 89 94 98 100 100 100
36 40 38 38 47 46 51 57 54 49 39 32 28 35 40 32 31 30 30 26 41 60 56 49 65 79 63 55 57 58 53 53 28 35 53 76 86 94 99 99 98 94 98

GFSSE_700_rhum_111.txt.gz
RH
29 18 12 16 19 13 17 23 22 23 24 25 26 19 12 12 14 15 11 12 17 23 32 40 41 42 37 35 37 43 50 56 60 65 77 77 74 76 66 63 60 59 56
25 21 11 14 21 14 14 22 27 25 24 26 28 22 15 13 13 14 13 11 11 16 24 35 43 46 42 38 38 45 53 61 66 69 81 78 80 86 63 62 60 58 57
34 27 12 12 17 17 14 17 24 28 27 26 29 26 20 16 14 14 14 13 12 12 15 24 37 43 44 42 40 42 48 57 67 75 82 80 79 83 58 60 62 68 56
26 28 14 14 17 19 16 15 20 23 21 23 27 25 23 18 15 15 16 15 15 14 14 17 22 30 36 40 42 43 46 54 64 74 75 77 77 79 62 60 66 69 61
18 22 15 15 18 21 17 15 16 21 20 20 20 22 24 19 16 16 16 16 16 17 16 17 20 23 27 34 41 43 48 55 66 77 70 73 93 76 73 70 65 65 69
12 14 20 16 20 23 21 15 16 18 20 19 19 20 21 21 16 16 17 17 16 16 17 17 23 21 25 30 34 42 52 57 66 77 77 76 80 86 77 74 70 70 68
12 12 14 19 21 24 26 17 16 17 20 20 19 19 21 22 20 17 17 17 16 17 24 24 26 23 25 28 30 45 53 57 68 74 80 84 86 75 70 69 69 72 67
16 12 14 17 20 23 27 23 17 17 18 21 20 20 20 22 23 20 18 18 18 17 17 26 28 28 26 26 28 43 57 61 66 67 77 83 79 78 72 70 68 70 72
19 15 12 17 23 23 29 29 20 18 18 21 22 21 21 21 23 22 21 18 18 19 17 19 22 23 28 25 22 27 46 61 67 70 70 81 85 88 84 74 68 70 73
18 18 14 14 21 24 27 34 28 20 20 20 22 22 22 24 24 24 21 21 18 19 19 19 21 22 22 28 26 23 28 39 54 65 64 71 77 90 93 81 70 66 66
26 21 17 15 19 30 28 34 35 25 22 21 21 22 22 26 26 27 23 22 20 19 20 21 22 22 21 22 23 25 24 31 34 56 66 62 60 84 92 83 78 70 74
31 27 20 19 15 25 32 30 30 30 25 24 23 23 22 25 26 26 24 23 22 20 22 23 23 20 18 18 19 23 26 30 36 46 57 68 64 78 76 86 92 89 89
27 35 26 20 19 16 26 32 32 27 26 26 26 24 24 23 26 26 25 22 22 23 22 24 25 24 21 19 18 18 20 25 42 48 54 59 77 70 78 79 82 83 85
35 37 36 23 22 20 18 26 30 34 30 29 30 30 28 26 25 27 27 24 22 23 23 25 25 26 25 21 20 19 24 24 29 36 46 59 64 68 78 81 73 77 78
35 36 35 30 27 35 22 28 32 32 42 38 43 41 37 32 28 28 28 27 23 23 24 25 26 26 26 25 22 21 21 26 36 39 46 54 76 77 75 85 73 72 81
34 35 38 38 25 26 41 47 48 54 47 48 50 50 44 38 33 33 30 29 26 24 24 25 26 28 28 27 26 26 28 31 34 37 43 52 60 64 65 68 74 67 79
33 33 35 38 36 26 23 26 51 64 62 67 59 59 60 58 42 36 33 32 30 25 25 26 26 28 29 27 27 31 27 30 33 37 35 44 47 50 57 61 63 71 72
34 33 33 33 33 37 34 28 32 56 73 77 67 73 76 73 71 45 37 35 34 30 25 26 27 28 30 32 28 29 30 31 29 30 34 34 44 49 51 50 43 60 72
36 35 31 28 21 22 30 30 28 29 33 62 83 80 82 81 80 65 51 42 40 36 31 27 27 28 31 33 32 32 31 31 32 28 25 31 29 38 50 59 44 46 68
36 35 34 22 20 19 19 22 24 26 28 29 32 49 65 77 73 75 68 49 44 43 37 32 29 29 30 36 40 38 35 35 34 34 29 17 18 20 30 38 44 41 65
39 45 39 19 16 14 13 14 16 19 21 22 24 27 28 32 54 67 67 66 71 56 44 40 37 36 40 42 47 47 38 36 36 37 35 20 10 11 23 25 36 48 67
58 52 29 16 17 14 11 8 5 4 5 7 11 16 20 21 22 23 30 43 61 69 76 59 54 57 45 52 58 60 50 40 38 40 39 34 18 14 20 22 56 47 53
57 40 21 20 18 15 12 10 7 5 3 3 3 3 3 4 7 12 17 34 34 38 60 76 88 91 88 80 83 75 64 49 42 42 45 45 31 19 23 22 39 36 58
47 22 27 27 24 22 19 15 14 10 7 9 6 6 6 10 8 5 6 29 43 40 46 60 80 91 96 78 90 93 87 74 53 42 45 49 47 30 24 25 44 58 74
27 25 19 15 14 13 13 13 13 13 12 8 10 13 17 20 26 23 17 16 27 46 57 42 41 56 63 71 78 74 90 76 65 46 45 51 53 47 39 31 46 79 83
27 28 23 19 12 9 9 11 11 13 15 15 17 18 23 27 32 34 38 39 32 44 72 56 43 45 64 65 77 64 55 85 67 48 46 50 57 54 50 34 49 80 90

GFSSE_700_rhum_114.txt.gz
RH
37 35 27 16 19 12 16 21 18 21 23 23 22 19 14 10 8 8 7 7 9 12 21 29 37 38 35 36 37 39 48 57 64 68 71 70 70 74 68 63 60 59 58
29 29 16 18 18 15 13 22 24 22 24 26 24 18 17 13 10 9 9 9 8 10 15 23 32 40 39 37 38 43 52 58 63 66 63 69 74 82 65 62 63 62 62
31 31 20 15 16 21 12 18 26 28 26 26 29 27 22 18 14 11 11 11 10 10 13 20 30 36 39 42 42 45 51 55 60 60 60 71 77 82 61 61 69 65 62
27 33 28 15 15 20 14 14 21 25 27 26 28 29 26 18 16 14 13 13 12 12 12 15 20 28 37 44 46 47 52 57 58 56 65 75 74 75 67 60 70 77 63
20 24 24 18 17 22 17 13 16 21 23 21 24 27 25 21 17 16 16 15 14 14 14 15 19 24 34 42 48 50 54 58 58 55 63 73 75 79 70 60 64 69 65
15 13 16 18 18 20 20 16 14 16 21 20 20 22 23 23 18 17 17 16 15 14 15 17 20 23 28 36 45 49 53 60 57 53 54 68 85 89 72 81 72 72 74
17 15 11 18 21 21 24 22 15 15 18 20 19 18 20 23 22 18 17 18 16 15 18 23 24 24 25 35 43 45 53 57 55 51 59 76 85 75 82 78 73 72 73
19 17 13 12 17 24 26 26 21 16 17 19 20 19 19 21 24 22 19 18 18 18 17 19 26 27 27 26 33 38 53 58 56 52 55 69 83 79 74 69 70 70 76
19 21 20 15 14 18 24 29 28 20 17 18 20 20 20 20 22 24 23 21 19 19 20 18 19 22 23 28 27 30 43 58 58 54 49 63 78 76 66 72 64 65 72
22 22 20 19 12 16 24 31 33 26 20 19 20 21 21 21 21 22 25 23 21 20 20 21 20 21 22 22 28 28 28 44 54 48 39 50 55 67 71 73 70 66 69
31 29 26 21 18 14 19 27 31 36 26 22 23 22 22 22 22 24 26 25 22 22 22 21 22 22 22 20 22 29 30 36 55 46 37 37 46 56 67 72 71 72 71
31 31 28 25 21 18 15 24 30 32 38 28 25 25 23 24 23 26 26 26 22 22 22 22 23 24 24 20 19 19 26 31 41 55 40 38 50 56 61 76 82 84 84
28 28 25 36 27 18 18 18 29 33 38 38 31 29 27 27 26 24 26 26 23 21 21 23 23 24 25 23 20 19 18 21 29 42 50 48 52 57 73 72 88 95 93
29 29 26 24 42 22 20 19 21 34 41 36 34 32 33 30 28 27 24 27 27 24 21 22 24 25 26 26 24 21 19 20 27 34 43 48 61 60 64 63 71 74 79
28 28 34 29 47 38 22 27 25 25 35 40 40 37 36 37 34 35 31 28 28 27 24 21 23 25 26 25 26 26 22 22 23 29 34 46 54 62 70 76 70 71 72
26 29 32 34 30 31 31 44 50 56 43 43 41 44 40 40 39 39 40 35 31 30 28 24 23 24 26 27 27 27 26 26 26 29 35 42 55 62 65 76 73 71 75
26 27 33 34 34 32 32 31 41 72 59 48 42 52 57 56 49 46 42 39 37 32 33 28 24 25 25 26 27 27 26 29 30 31 32 36 40 44 52 59 68 63 61
28 29 31 34 35 35 34 31 29 33 58 69 66 69 61 53 56 66 63 65 67 47 37 34 29 25 26 26 28 30 30 29 30 31 29 28 28 33 42 49 58 53 52
29 33 33 33 33 35 39 38 34 30 36 40 65 68 70 74 74 70 77 84 91 74 55 40 36 31 27 28 28 31 32 32 30 30 30 30 28 28 31 32 53 54 49
32 33 34 34 33 33 34 34 25 27 30 29 29 34 59 78 80 77 74 77 89 90 80 73 45 39 34 31 31 32 37 35 33 31 31 31 32 28 16 18 39 33 36
32 33 34 34 35 35 23 22 20 22 24 25 25 25 28 30 32 51 72 74 70 77 81 72 71 70 65 40 37 38 42 41 38 32 32 33 34 32 20 11 14 19 26
33 35 37 37 37 40 19 14 12 11 11 13 16 19 21 22 24 25 27 29 35 51 69 74 79 80 74 82 94 69 54 52 46 40 36 37 36 36 33 14 15 15 22
40 49 52 40 43 36 14 12 10 8 7 7 7 7 7 8 11 14 16 18 21 24 25 31 55 73 81 90 92 94 99 94 62 52 42 41 40 42 39 26 18 17 17
75 70 60 48 29 17 17 17 17 16 13 12 8 6 5 6 5 4 4 4 3 3 6 14 45 53 59 65 86 92 90 100 88 78 58 53 43 43 44 43 27 20 18
71 59 35 25 21 18 15 12 11 11 11 11 10 8 6 7 9 10 10 12 13 14 12 7 5 39 53 53 56 96 99 93 78 82 72 69 52 44 48 50 44 30 18
60 45 30 35 32 18 19 17 14 14 6 7 7 8 10 10 13 17 16 18 20 26 28 26 21 19 45 57 59 65 63 61 53 63 66 54 64 47 47 53 52 40 22